Simultaneous Nadir Overpasses (SNOs) Predictions

Prediction of SNOs between AURA and NPP Satellite Orbit:

Table of predicted SNOs for the next 14.0 days since TLE Epoch: 6/10/2015
Index Date (AURA) Time (AURA) Lat,Lon (AURA) SZA (AURA ) Date (NPP) Time (NPP) Lat,Lon (NPP) SZA (NPP ) Distance(km) Time Diff (sec)
1 06/12/2015 16:41:20 -78.45, 0.35 108.91 06/12/2015 16:40:37 -78.46, 0.42 108.89 1.56 43
2 06/12/2015 17:30:38 78.78, 169.73 70.65 06/12/2015 17:31:13 78.77, 169.65 70.64 1.71 35
3 06/15/2015 08:57:45 -78.47, 116.34 109.05 06/15/2015 08:57:31 -78.46, 116.21 109.01 3.01 14
4 06/15/2015 09:46:58 79.00, -73.12 70.24 06/15/2015 09:48:01 78.99, -73.12 70.19 0.22 63
5 06/18/2015 00:24:46 78.31, 63.80 71.10 06/18/2015 00:23:43 78.31, 63.83 71.15 0.58 63
6 06/18/2015 01:14:02 -78.79,-126.04 109.55 06/18/2015 01:14:16 -78.80,-125.94 109.58 2.44 14
7 06/20/2015 16:41:08 78.35, 179.90 71.03 06/20/2015 16:40:35 78.35, 179.78 71.09 2.96 33
8 06/20/2015 17:30:23 -78.87, -9.68 109.67 06/20/2015 17:31:07 -78.87, -9.72 109.70 0.79 44
9 06/23/2015 08:57:26 78.58, -63.06 70.77 06/23/2015 08:57:23 78.57, -63.17 70.80 2.67 3




NCC Satellite Simultaneous Nadir Overpasses (SNOs) Prediction Service
